Simultaneous Nadir Overpasses (SNOs) Predictions

Prediction of SNOs between METOP-B and NOAA-19 Satellite Orbit:

Table of predicted SNOs for the next 14.0 days since TLE Epoch: 8/2/2025
Index Date (METOP-B) Time (METOP-B) Lat,Lon (METOP-B) SZA (METOP-B ) Date (NOAA-19) Time (NOAA-19) Lat,Lon (NOAA-19) SZA (NOAA-19 ) Distance(km) Time Diff (sec)
1 08/06/2025 21:47:34 81.00, -82.28 69.67 08/06/2025 21:46:34 81.00, -82.24 69.64 0.89 60
2 08/06/2025 22:38:15 -81.01, 84.81 110.36 08/06/2025 22:37:28 -81.01, 84.71 110.40 1.85 47
3 08/06/2025 23:28:56 81.00,-107.73 69.67 08/06/2025 23:28:30 81.00,-107.59 69.68 2.60 26
4 08/07/2025 00:19:36 -81.00, 59.72 110.31 08/07/2025 00:19:23 -81.00, 59.73 110.31 0.32 13
5 08/07/2025 01:10:17 80.99,-132.83 69.72 08/07/2025 01:10:26 81.00,-132.94 69.72 2.06 9
6 08/07/2025 02:00:58 -81.00, 34.27 110.30 08/07/2025 02:01:19 -81.00, 34.38 110.27 2.07 21
7 08/07/2025 02:51:39 81.00,-158.28 69.73 08/07/2025 02:52:22 80.99,-158.29 69.75 0.16 43



Historial Predications of SNOs between METOP-B and NOAA-19
